Location: Bretagne
(43.8474°N, 0.4650°W)
Time: 15:58:25
(UTC+00:00)

COSMOS 2455 - Pass Details

Date: 15 January 2026
Orbit: 899 x 909 km, 67.1° (Epoch: 18 February)

Event Time Altitude Azimuth Distance (km) Brightness Sun altitude
Rises 17:54:44 0° 335° (NNW) 3,547 6.0 -11.5°
Reaches altitude 10° 17:58:31 10° 358° (N) 2,603 5.1 -12.2°
Maximum altitude 18:01:51 15° 32° (NNE) 2,257 4.5 -12.7°
Enters shadow 18:03:12 14° 47° (NE) 2,314 4.4 -13.0°
